Burlington, VT

10:00 PM EST on November 22, 2019 (GMT -0500)
Burlington International

Weather History for KBTV - September, 2019

Change the Weather History Date:

Wednesday, September 4, 2019

  Actual Average Record
Temperature  
Mean Temperature 70 °F 65 °F  
Max Temperature 79 °F 75 °F 93 °F (1999)
Min Temperature 61 °F 55 °F 40 °F (1924)
Degree Days  
Heating Degree Days 0 3  
Month to date heating degree days 4 9  
Since 1 July heating degree days 8 51  
Cooling Degree Days 5 3  
Month to date cooling degree days 5 12  
Year to date cooling degree days 585 460  
Growing Degree Days 20 (Base 50)    
Moisture  
Dew Point 58 °F    
Average Humidity 66    
Maximum Humidity 78    
Minimum Humidity 53    
Precipitation  
Precipitation 0.19 in 0.11 in 1.48 in (1904)
Month to date precipitation 1.48 0.44  
Year to date precipitation 27.77 24.51  
Snow  
Snow 0.00 in 0.00 in 0.00 in (2002)
Month to date snowfall 0.0 0.0  
Since 1 July snowfall 0.0 0.0  
Since 1 September snowfall 0.0 0.0  
Snow Depth 0.00 in    
Sea Level Pressure  
Sea Level Pressure 29.83 in    
Wind  
Wind Speed 16 mph (SSW)    
Max Wind Speed 26 mph    
Max Gust Speed 39 mph    
Visibility 9 miles    
Events Rain , Thunderstorm    
T = Trace of Precipitation, MM = Missing Value Source: NWS Daily Summary

Daily Weather History Graph

Daily Weather History Graph

Search for Another Location

Airport or City:

Astronomy

Sep. 04, 2019 Rise Set
Actual Time 6:18 AM EDT 7:24 PM EDT
Civil Twilight 5:48 AM EDT 7:53 PM EDT
Nautical Twilight 5:12 AM EDT 8:29 PM EDT
Astronomical Twilight 4:35 AM EDT 9:06 PM EDT
Moon 12:30 PM EDT (9/4) 10:42 PM EDT (9/4)
Length of Visible Light 14h 05m
Length of Day
13h 05m
Waxing Crescent, 34% of the Moon is Illuminated
Sep 4
Waxing Crescent
Sep 5
First Quarter
Sep 14
Full
Sep 21
Last Quarter
Sep 28
New

Hourly Weather History & Observations

Time (EDT) Temp. Dew Point Humidity Pressure Visibility Wind Dir Wind Speed Gust Speed Precip Events Conditions
12:54 AM 64.0 °F 57.0 °F 78% 29.90 in 10.0 mi South 8.1 mph - N/A   Scattered Clouds
1:54 AM 64.0 °F 57.9 °F 80% 29.88 in 10.0 mi South 5.8 mph - N/A   Mostly Cloudy
2:54 AM 69.1 °F 57.0 °F 65% 29.85 in 10.0 mi SSW 13.8 mph - N/A   Partly Cloudy
3:54 AM 69.1 °F 57.9 °F 68% 29.82 in 10.0 mi South 13.8 mph 20.7 mph N/A   Clear
4:54 AM 70.0 °F 57.0 °F 63% 29.79 in 10.0 mi South 18.4 mph 26.5 mph N/A   Clear
5:54 AM 70.0 °F 57.0 °F 63% 29.78 in 10.0 mi South 23.0 mph 38.0 mph 0.00 in Rain Light Rain
6:54 AM 69.1 °F 55.9 °F 63% 29.80 in 10.0 mi South 18.4 mph 31.1 mph 0.00 in   Mostly Cloudy
7:54 AM 68.0 °F 55.9 °F 65% 29.78 in 10.0 mi South 17.3 mph 26.5 mph 0.00 in Rain Light Rain
8:54 AM 70.0 °F 55.9 °F 61% 29.77 in 10.0 mi South 21.9 mph 31.1 mph 0.00 in Thunderstorm Mostly Cloudy
9:02 AM 69.1 °F 55.9 °F 63% 29.80 in 10.0 mi SSW 13.8 mph 27.6 mph 0.00 in Rain , Thunderstorm Light Thunderstorms and Rain
9:34 AM 66.0 °F 59.0 °F 78% 29.80 in 5.0 mi South 16.1 mph 23.0 mph 0.04 in Rain , Thunderstorm Light Rain
9:42 AM 64.9 °F 59.0 °F 81% 29.79 in 3.0 mi South 17.3 mph 29.9 mph 0.08 in Rain , Thunderstorm Heavy Thunderstorms and Rain
9:54 AM 64.9 °F 60.1 °F 84% 29.81 in 6.0 mi South 17.3 mph 25.3 mph 0.11 in Rain , Thunderstorm Thunderstorms and Rain
10:09 AM 64.9 °F 60.1 °F 84% 29.78 in 5.0 mi South 18.4 mph 27.6 mph 0.03 in Rain , Thunderstorm Rain
10:38 AM 66.0 °F 61.0 °F 84% 29.76 in 10.0 mi South 18.4 mph 28.8 mph 0.06 in   Mostly Cloudy
10:54 AM 66.9 °F 62.1 °F 84% 29.76 in 8.0 mi South 16.1 mph 28.8 mph 0.07 in Rain Light Rain
11:54 AM 70.0 °F 63.0 °F 78% 29.75 in 10.0 mi South 19.6 mph 28.8 mph 0.00 in   Mostly Cloudy
12:54 PM 73.9 °F 64.0 °F 71% 29.74 in 10.0 mi South 17.3 mph 27.6 mph N/A   Mostly Cloudy
1:54 PM 75.9 °F 64.0 °F 67% 29.73 in 10.0 mi South 15.0 mph 25.3 mph N/A   Mostly Cloudy
2:54 PM 78.1 °F 62.1 °F 58% 29.73 in 10.0 mi South 11.5 mph 24.2 mph N/A   Mostly Cloudy
3:54 PM 77.0 °F 62.1 °F 60% 29.76 in 10.0 mi WSW 16.1 mph 23.0 mph N/A   Mostly Cloudy
4:54 PM 73.9 °F 55.0 °F 52% 29.80 in 10.0 mi WNW 16.1 mph 25.3 mph N/A   Mostly Cloudy
5:54 PM 72.0 °F 54.0 °F 53% 29.84 in 10.0 mi West 15.0 mph - N/A   Mostly Cloudy
6:54 PM 66.9 °F 57.9 °F 73% 29.88 in 10.0 mi NW 21.9 mph 27.6 mph 0.00 in Rain Light Rain
7:54 PM 64.0 °F 57.0 °F 78% 29.94 in 10.0 mi NW 13.8 mph - 0.01 in Rain Light Rain
8:54 PM 64.0 °F 53.1 °F 67% 29.99 in 10.0 mi NNW 18.4 mph - 0.00 in   Mostly Cloudy
9:54 PM 63.0 °F 50.0 °F 63% 30.01 in 10.0 mi NNW 19.6 mph 26.5 mph N/A   Mostly Cloudy
10:54 PM 63.0 °F 50.0 °F 63% 30.03 in 10.0 mi NNW 16.1 mph - N/A   Overcast
11:54 PM 62.1 °F 48.0 °F 60% 30.04 in 10.0 mi North 5.8 mph - N/A   Overcast